Regional Weather Roundup
Issued by NWS Midland/Odessa, TX

Skip options and go directly to product.
Home | Oldest Version | Previous Version | Current Version | All | Text Only | Save Text | Print | Product List | Glossary On

Skip product version selection by date and time.   
291
ASUS44 KMAF 292210
RWRMAF
MIDLAND AREA WEATHER ROUNDUP
NATIONAL WEATHER SERVICE MIDLAND TX
400 PM CST THU JAN 29 2015

...IN SOUTHWEST TEXAS AND SOUTHEAST NEW MEXICO...

CITY           SKY/WX    TMP DP  RH WIND       PRES   REMARKS
ALPINE         CLOUDY    58  38  49 NE13G22   30.39S
ANDREWS        FAIR      57  29  34 NE18G24   30.39R
ARTESIA        CLOUDY    55  30  38 NE12      30.41F
BIG SPRING     PTSUNNY   61  31  31 N20G25    30.39R
CARLSBAD       CLOUDY    57  32  38 NE12      30.40S
DRYDEN           N/A     76  41  28 NE14G22   30.21R
FORT STOCKTON  MOSUNNY   66  39  37 NE12G18   30.31S
GUAD PASS      CLOUDY    46  31  55 NE45      30.33F WCI  35
HOBBS          PTSUNNY   54  27  35 NE17G23   30.42R
MARFA          MOSUNNY   61  36  39 N23G29    30.32R
MIDLAND AIRPK  PTSUNNY   61  32  33 NE21G26   30.37S
MIDLAND INTL   PTSUNNY   61  33  35 NE21G30   30.36R
ODESSA         PTSUNNY   62  34  35 NE21G28   30.37R
PECOS          MOSUNNY   64  35  34 NE12      30.33R
PRESIDIO       FAIR      79  47  32 SE3       30.14S
SEMINOLE       PTSUNNY   56  28  33 NE18G24   30.41S
SNYDER         CLOUDY   N/A N/A N/A NE21G26   30.38R
WINK           MOSUNNY   63  31  30 NE16G25   30.33F
$$
...OTHER STATIONS IN TEXAS...

CITY           SKY/WX    TMP DP  RH WIND       PRES   REMARKS
ABILENE        PTSUNNY   60  35  39 N21G30    30.36R
AMARILLO       CLOUDY    48  25  40 N17       30.48R
AUSTIN         PTSUNNY   75  53  46 CALM      30.19S
BROWNSVILLE    SUNNY     74  60  61 SE12      30.15R
CORPUS CHRISTI PTSUNNY   75  59  57 SE12      30.18R
DALLAS FTW     PTSUNNY   63  35  35 N17       30.29R
DEL RIO        PTSUNNY   78  48  34 VRB5      30.16S
EL PASO        PTSUNNY   60  32  34 NE17      30.28R
HOUSTON INT    PTSUNNY   75  58  55 W6        30.20S
LUBBOCK        CLOUDY    53  23  31 NE20      30.42R
SAN ANGELO     CLOUDY    64  37  36 N17G25    30.31R
SAN ANTONIO    MOSUNNY   75  54  47 SE5       30.20R
WACO           CLOUDY    70  40  33 N16       30.25R
WICHITA FALLS  NOT AVBL
$$
...OTHER LOCATIONS IN NEW MEXICO...

CITY           SKY/WX    TMP DP  RH WIND       PRES   REMARKS
ALAMAGORDO     PTSUNNY   59  36  41 S3        30.30S
ALBUQUERQUE    CLOUDY    50  26  39 E24       30.37F
CANNON AFB     CLOUDY    47  21  35 NE16      30.45S
CLOVIS         CLOUDY    46  19  34 NE16      30.46S WCI  40
HOLLOMAN AFB   PTSUNNY   60  38  43 SE2       30.28R
ROSWELL        CLOUDY    56  28  34 E13       30.40F
RUIDOSO        CLOUDY    39  28  65 SE14      30.46R WCI  31
SANTA FE       CLOUDY    47  23  38 SE20      30.39F WCI  40
TRUTH OR CONSE CLOUDY    57  31  37 N16G22    30.29S
TUCUMCARI      CLOUDY    48  20  32 E9        30.47S
$$

USA.gov is the U.S. government's official web portal to all federal, state and local government web resources and services.